This is the latest recevied weather packets stored in our database for station/object JR5YHL-13. If no packets are shown the sender has not sent any weather packets the latest 10 day(s).
| Time | Temp. | Humidity | Pressure | Rain* | Wind** | Luminosity | Snow |
|---|---|---|---|---|---|---|---|
| 1777847443 | 19.44° C | 69% | 1006.6 hPa | 0 mm | - | - | - |
| 1777846845 | 19.44° C | 79% | 1006.5 hPa | 0 mm | - | - | - |
| 1777846248 | 18.33° C | 83% | 1006.6 hPa | 0 mm | - | - | - |
| 1777845650 | 17.78° C | 86% | 1006.5 hPa | 0 mm | - | - | - |
| 1777845052 | 17.78° C | 90% | 1006.5 hPa | 0 mm | - | - | - |
| 1777844455 | 17.22° C | 95% | 1006.4 hPa | 0 mm | - | - | - |
| 1777843857 | 16.67° C | 99% | 1006.3 hPa | 0 mm | - | - | - |
| 1777843259 | 16.11° C | 99% | 1006.3 hPa | 0 mm | - | - | - |
| 1777842662 | 15.56° C | 99% | 1006.5 hPa | 0 mm | - | - | - |
| 1777842064 | 15.56° C | 99% | 1005.9 hPa | 0 mm | - | - | - |
| 1777841467 | 15° C | 99% | 1005.4 hPa | 0 mm | - | - | - |
| 1777840869 | 15° C | 99% | 1005.3 hPa | 0 mm | - | - | - |
| 1777840272 | 15° C | 99% | 1004.7 hPa | 0 mm | - | - | - |
| 1777839674 | 15.56° C | 99% | 1004.3 hPa | 0 mm | - | - | - |
| 1777839076 | 15.56° C | 99% | 1004.5 hPa | 0 mm | - | - | - |
| 1777838479 | 15.56° C | 99% | 1004.4 hPa | 0 mm | - | - | - |
| 1777837881 | 15.56° C | 99% | 1004.3 hPa | 0 mm | - | - | - |
| 1777837283 | 16.11° C | 99% | 1004.5 hPa | 0 mm | - | - | - |
| 1777836686 | 16.11° C | 99% | 1004.6 hPa | 0 mm | - | - | - |
| 1777836088 | 16.67° C | 99% | 1004.3 hPa | 0 mm | - | - | - |
| 1777835490 | 16.67° C | 99% | 1004.4 hPa | 0 mm | - | - | - |
| 1777834893 | 16.67° C | 99% | 1004.1 hPa | 0 mm | - | - | - |
| 1777834295 | 16.67° C | 99% | 1004 hPa | 0 mm | - | - | - |
| 1777833697 | 16.67° C | 99% | 1004 hPa | 0 mm | - | - | - |
| 1777833099 | 17.22° C | 99% | 1004.1 hPa | 0 mm | - | - | - |
* Rain latest hour (hover to see other rain measurements)
** Current wind speed in m/s (hover to see current wind gust speed)